FW7008 Weather Reports


time (UTC)temp
F
wind
direction
speed
knots
gust
knots
rain 1hr
in
rain 24hr
in
rain mn
in
humidity
%
barometer
mb
20260904223708 78 261 5.2 7.0 0.00 0.00 0.00 68 1012.9
20260904223203 79 263 10.4 12.2 0.00 0.00 0.00 66 1012.5
20260904222659 79 295 7.8 11.3 0.00 0.00 0.00 66 1012.9
20260904222155 81 207 0.0 0.0 0.00 0.00 0.00 63 1012.9
20260904221654 81 279 3.5 4.3 0.00 0.00 0.00 62 1012.9
20260904221149 84 281 0.0 0.0 0.00 0.00 0.00 56 1012.9
20260904220644 84 56 0.9 1.7 0.00 0.00 0.00 53 1012.9
20260904220139 82 28 0.0 0.0 0.00 0.00 0.00 52 1012.9
20260904215633 81 233 0.9 1.7 0.00 0.00 0.00 53 1012.9
20260904215129 81 110 2.6 4.3 0.00 0.00 0.00 57 1012.9
20260904214629 82 55 0.9 2.6 0.00 0.00 0.00 54 1012.9
20260904214125 83 47 3.5 6.1 0.00 0.00 0.00 56 1013.2
20260904213623 80 48 0.9 1.7 0.00 0.00 0.00 55 1013.2
20260904213119 82 152 4.3 5.2 0.00 0.00 0.00 55 1013.2
20260904212614 82 146 0.0 0.0 0.00 0.00 0.00 55 1013.2
20260904212109 83 83 3.5 4.3 0.00 0.00 0.00 55 1013.2
20260904211609 82 95 2.6 4.3 0.00 0.00 0.00 55 1013.2
20260904211104 82 74 2.6 4.3 0.00 0.00 0.00 55 1013.2
20260904210604 82 33 3.5 6.1 0.00 0.00 0.00 52 1013.2
20260904210059 83 59 3.5 6.1 0.00 0.00 0.00 54 1013.2
20260904205554 81 41 1.7 1.7 0.00 0.00 0.00 51 1013.2
20260904205051 82 36 0.0 0.0 0.00 0.00 0.00 54 1013.2
20260904204547 82 58 3.5 4.3 0.00 0.00 0.00 52 1013.2
20260904204043 82 112 3.5 4.3 0.00 0.00 0.00 48 1013.5
20260904203538 82 50 2.6 4.3 0.00 0.00 0.00 53 1013.5
20260904203035 81 89 1.7 1.7 0.00 0.00 0.00 57 1013.2
20260904202530 81 105 3.5 5.2 0.00 0.00 0.00 60 1013.2
20260904202026 80 41 0.9 0.9 0.00 0.00 0.00 61 1013.5
20260904201521 79 102 2.6 2.6 0.00 0.00 0.00 63 1013.5
20260904201017 81 57 0.0 0.0 0.00 0.00 0.00 59 1013.5
20260904200515 81 81 1.7 2.6 0.00 0.00 0.00 62 1013.9
20260904200011 80 185 1.7 4.3 0.00 0.00 0.00 62 1013.9
20260904195509 80 94 2.6 5.2 0.00 0.00 0.00 64 1013.9
20260904195008 79 36 0.0 0.0 0.00 0.00 0.00 65 1013.9
20260904194502 80 81 1.7 1.7 0.00 0.00 0.00 65 1013.9
20260904193957 79 94 0.0 0.0 0.00 0.00 0.00 67 1013.9
20260904193453 78 208 0.0 0.0 0.00 0.00 0.00 68 1013.9
20260904192948 78 59 3.5 4.3 0.00 0.00 0.00 69 1013.9
20260904192443 80 62 0.9 4.3 0.00 0.00 0.00 65 1014.2
20260904191939 78 138 3.5 4.3 0.00 0.00 0.00 67 1014.2
20260904191436 78 90 2.6 7.0 0.00 0.00 0.00 68 1014.2
20260904190932 79 87 2.6 5.2 0.00 0.00 0.00 68 1014.2
20260904190426 78 57 1.7 2.6 0.00 0.00 0.00 69 1014.2
20260904185923 77 75 0.9 4.3 0.00 0.00 0.00 71 1014.2
20260904185419 77 200 4.3 5.2 0.00 0.00 0.00 70 1014.6
20260904184919 77 98 0.0 0.0 0.00 0.00 0.00 70 1014.6
20260904184413 78 106 0.0 0.0 0.00 0.00 0.00 70 1014.6
20260904183908 77 195 0.0 0.0 0.00 0.00 0.00 72 1014.6
20260904183404 78 56 3.5 7.0 0.00 0.00 0.00 69 1014.6
20260904182900 77 84 0.0 0.0 0.00 0.00 0.00 71 1014.6
20260904182359 77 132 1.7 1.7 0.00 0.00 0.00 70 1014.6
20260904181854 76 83 4.3 5.2 0.00 0.00 0.00 69 1014.6
20260904181349 76 63 3.5 5.2 0.00 0.00 0.00 71 1014.2
20260904180845 77 98 2.6 5.2 0.00 0.00 0.00 72 1014.6
20260904180340 77 78 4.3 7.0 0.00 0.00 0.00 71 1014.6
20260904175839 78 84 3.5 4.3 0.00 0.00 0.00 69 1014.9
20260904175334 78 134 4.3 5.2 0.00 0.00 0.00 69 1014.6
20260904174833 77 67 0.0 0.0 0.00 0.00 0.00 68 1014.6
20260904174329 77 85 0.0 0.0 0.00 0.00 0.00 70 1014.6
20260904173825 76 44 1.7 2.6 0.00 0.00 0.00 72 1014.6
20260904173320 75 77 0.9 1.7 0.00 0.00 0.00 73 1014.6
20260904172816 77 81 2.6 5.2 0.00 0.00 0.00 71 1014.6
20260904172315 76 106 2.6 4.3 0.00 0.00 0.00 71 1014.2
20260904171810 76 135 2.6 4.3 0.00 0.00 0.00 73 1014.6
20260904171305 76 83 2.6 5.2 0.00 0.00 0.00 71 1014.6
20260904170802 76 50 4.3 6.1 0.00 0.00 0.00 72 1014.6
20260904170257 76 36 3.5 5.2 0.00 0.00 0.00 71 1014.6
20260904165756 75 116 2.6 4.3 0.00 0.00 0.00 75 1014.6
20260904165256 75 70 0.9 1.7 0.00 0.00 0.00 74 1014.6
20260904164750 75 72 4.3 5.2 0.00 0.00 0.00 75 1014.2
20260904164246 74 97 0.9 0.9 0.00 0.00 0.00 77 1014.2
20260904163742 73 60 0.9 1.7 0.00 0.00 0.00 78 1013.9
20260904163237 74 129 0.9 1.7 0.00 0.00 0.00 76 1014.2
20260904162735 74 60 0.0 0.0 0.00 0.00 0.00 76 1013.9
20260904162231 73 79 0.0 0.0 0.00 0.00 0.00 78 1013.9
20260904161726 73 27 0.0 0.0 0.00 0.00 0.00 79 1013.9
20260904161221 73 66 1.7 1.7 0.00 0.00 0.00 80 1013.9
20260904160716 73 135 0.0 0.0 0.00 0.00 0.00 79 1013.9
20260904160207 73 61 0.0 0.0 0.00 0.00 0.00 79 1013.9
20260904155707 74 1 0.0 0.0 0.00 0.00 0.00 78 1013.9
20260904155206 72 67 0.0 0.0 0.00 0.00 0.00 82 1013.9
20260904154705 72 135 0.0 0.0 0.00 0.00 0.00 84 1013.9
20260904154205 71 146 0.0 0.0 0.00 0.00 0.00 85 1013.9
20260904153700 72 51 0.0 0.0 0.00 0.00 0.00 84 1013.5
20260904153156 72 79 0.0 0.0 0.00 0.00 0.00 83 1013.9
20260904152652 71 63 0.0 0.0 0.00 0.00 0.00 86 1013.9
20260904152147 71 64 0.0 0.0 0.00 0.00 0.00 85 1013.9
20260904151642 71 75 0.9 1.7 0.00 0.00 0.00 86 1013.9
20260904151140 70 16 0.0 0.0 0.00 0.00 0.00 86 1013.9
20260904150636 69 42 0.0 0.0 0.00 0.00 0.00 88 1013.9
20260904150132 69 78 0.0 0.0 0.00 0.00 0.00 89 1013.9
20260904145630 69 66 0.0 0.0 0.00 0.00 0.00 90 1013.9
20260904145126 68 35 0.0 0.0 0.00 0.00 0.00 91 1013.5
20260904144621 67 54 0.0 0.0 0.00 0.00 0.00 93 1013.5
20260904144117 66 58 0.0 0.0 0.00 0.00 0.00 93 1013.9
20260904143612 66 49 0.0 0.0 0.00 0.00 0.00 94 1013.5
20260904143108 66 45 0.0 0.0 0.00 0.00 0.00 95 1013.5
20260904142605 65 72 0.0 0.0 0.00 0.00 0.00 97 1013.5
20260904142105 64 72 0.0 0.0 0.00 0.00 0.00 97 1013.2
20260904141600 64 72 0.0 0.0 0.00 0.00 0.00 98 1013.2
20260904141056 63 72 0.0 0.0 0.00 0.00 0.00 98 1013.2
20260904140551 62 72 0.0 0.0 0.00 0.00 0.00 98 1013.2
20260904140045 63 72 0.0 0.0 0.00 0.00 0.00 98 1013.2
20260904135544 63 72 0.0 0.0 0.00 0.00 0.00 98 1012.9
20260904135036 63 72 0.0 0.0 0.00 0.00 0.00 98 1013.2
20260904134531 62 72 0.0 0.0 0.00 0.00 0.00 98 1013.2
20260904134025 62 72 0.0 0.0 0.00 0.00 0.00 98 1012.9
20260904133519 62 72 0.0 0.0 0.00 0.00 0.00 98 1012.9
20260904133015 62 72 0.0 0.0 0.00 0.00 0.00 98 1013.2
20260904132510 62 72 0.0 0.0 0.00 0.00 0.00 98 1013.2
20260904132010 62 72 0.0 0.0 0.00 0.00 0.00 98 1012.9
20260904131504 62 72 0.0 0.0 0.00 0.00 0.00 98 1013.2
20260904131000 61 72 0.0 0.0 0.00 0.00 0.00 98 1012.9
20260904130459 62 72 0.0 0.0 0.00 0.00 0.00 98 1013.2
20260904125954 62 72 0.0 0.0 0.00 0.00 0.00 98 1012.9
20260904125450 62 72 0.0 0.0 0.00 0.00 0.00 98 1012.9
20260904124949 62 72 0.0 0.0 0.00 0.00 0.00 98 1012.9
20260904124446 61 72 0.0 0.0 0.00 0.00 0.00 98 1012.9
20260904123942 62 72 0.0 0.0 0.00 0.00 0.00 97 1012.9
20260904123436 62 72 0.0 0.0 0.00 0.00 0.00 98 1012.9
20260904122932 62 72 0.0 0.0 0.00 0.00 0.00 97 1012.9
20260904122431 62 72 0.0 0.0 0.00 0.00 0.00 97 1012.9
20260904121926 62 72 0.0 0.0 0.00 0.00 0.00 97 1012.5
20260904121422 62 72 0.0 0.0 0.00 0.00 0.00 97 1012.5
20260904120919 62 72 0.0 0.0 0.00 0.00 0.00 97 1012.5
20260904120414 62 72 0.0 0.0 0.00 0.00 0.00 97 1012.9
20260904115909 62 72 0.0 0.0 0.00 0.00 0.00 97 1012.9
20260904115404 62 72 0.0 0.0 0.00 0.00 0.00 97 1012.9
20260904114859 62 72 0.0 0.0 0.00 0.00 0.00 97 1012.9
20260904114353 62 72 0.0 0.0 0.00 0.00 0.00 97 1012.9
20260904113849 62 72 0.0 0.0 0.00 0.00 0.00 97 1012.9
20260904113348 62 72 0.0 0.0 0.00 0.00 0.00 97 1012.9
20260904112843 62 72 0.0 0.0 0.00 0.00 0.00 96 1012.5
20260904112338 62 72 0.0 0.0 0.00 0.00 0.00 96 1012.5
20260904111834 62 72 0.0 0.0 0.00 0.00 0.00 96 1012.5
20260904111330 62 73 0.0 0.0 0.00 0.00 0.00 96 1012.9
20260904110825 62 72 0.0 0.0 0.00 0.00 0.00 96 1012.9
20260904110324 63 72 0.0 0.0 0.00 0.00 0.00 96 1012.5
20260904105824 62 72 0.0 0.0 0.00 0.00 0.00 96 1012.9
20260904105319 62 72 0.0 0.0 0.00 0.00 0.00 96 1012.5
20260904104814 63 72 0.0 0.0 0.00 0.00 0.00 96 1012.9
20260904104310 63 72 0.0 0.0 0.00 0.00 0.00 95 1012.9
20260904103807 62 72 0.0 0.0 0.00 0.00 0.00 95 1012.9
20260904103306 62 72 0.0 0.0 0.00 0.00 0.00 95 1012.9
20260904102802 63 72 0.0 0.0 0.00 0.00 0.00 95 1012.9
20260904102258 63 72 0.0 0.0 0.00 0.00 0.00 95 1012.5
20260904101754 63 72 0.0 0.0 0.00 0.00 0.00 95 1012.5
20260904101250 63 72 0.0 0.0 0.00 0.00 0.00 94 1012.9
20260904100745 63 72 0.0 0.0 0.00 0.00 0.00 94 1012.9
20260904100241 64 73 0.0 0.0 0.00 0.00 0.00 94 1012.9
20260904095740 64 73 0.0 0.0 0.00 0.00 0.00 94 1012.5
20260904095235 64 72 0.0 0.0 0.00 0.00 0.00 94 1012.9
20260904094730 64 72 0.0 0.0 0.00 0.00 0.00 93 1012.5
20260904094225 64 72 0.0 0.0 0.00 0.00 0.00 93 1012.9
20260904093722 64 72 0.0 0.0 0.00 0.00 0.00 93 1012.9
20260904093221 63 72 0.0 0.0 0.00 0.00 0.00 93 1012.9
20260904092717 64 72 0.0 0.0 0.00 0.00 0.00 93 1012.9
20260904092213 64 72 0.0 0.0 0.00 0.00 0.00 92 1012.9
20260904091709 64 72 0.0 0.0 0.00 0.00 0.00 92 1012.5
20260904091204 64 73 0.0 0.0 0.00 0.00 0.00 92 1012.9
20260904090659 64 73 0.0 0.0 0.00 0.00 0.00 92 1012.9
20260904090154 64 73 0.0 0.0 0.00 0.00 0.00 91 1012.9
20260904085649 64 73 0.0 0.0 0.00 0.00 0.00 92 1012.9
20260904085144 64 72 0.0 0.0 0.00 0.00 0.00 92 1012.5
20260904084639 64 72 0.0 0.0 0.00 0.00 0.00 92 1012.9
20260904084135 64 72 0.0 0.0 0.00 0.00 0.00 92 1012.9
20260904083632 64 72 0.0 0.0 0.00 0.00 0.00 92 1012.9
20260904083127 64 72 0.0 0.0 0.00 0.00 0.00 93 1012.9
20260904082622 64 72 0.0 0.0 0.00 0.00 0.00 93 1012.5
20260904082117 64 72 0.0 0.0 0.00 0.00 0.00 93 1012.9
20260904081613 64 72 0.0 0.0 0.00 0.00 0.00 93 1012.9
20260904081107 64 72 0.0 0.0 0.00 0.00 0.00 93 1012.9
20260904080557 64 72 0.0 0.0 0.00 0.00 0.00 93 1012.9
20260904080053 64 72 0.0 0.0 0.00 0.00 0.00 93 1012.9
20260904075549 64 72 0.0 0.0 0.00 0.00 0.00 93 1012.9
20260904075049 64 72 0.0 0.0 0.00 0.00 0.00 93 1012.9
20260904074549 64 72 0.0 0.0 0.00 0.00 0.00 94 1012.9
20260904074044 64 72 0.0 0.0 0.00 0.00 0.00 93 1012.9
20260904073539 64 72 0.0 0.0 0.00 0.00 0.00 93 1012.9
20260904073035 64 72 0.0 0.0 0.00 0.00 0.00 93 1012.9
20260904072531 65 73 0.0 0.0 0.00 0.00 0.00 93 1012.9
20260904072025 65 73 0.0 0.0 0.00 0.00 0.00 93 1012.9
20260904071521 65 73 0.0 0.0 0.00 0.00 0.00 93 1012.9
20260904071015 65 75 0.0 0.0 0.00 0.00 0.00 92 1012.5
20260904070514 65 79 0.0 0.0 0.00 0.00 0.00 92 1012.9
20260904070009 65 86 0.0 0.0 0.00 0.00 0.00 92 1012.9
20260904065505 66 92 0.0 0.0 0.00 0.00 0.00 92 1012.9
20260904065001 66 95 0.0 0.0 0.00 0.00 0.00 91 1012.5
20260904064457 66 97 0.0 0.0 0.00 0.00 0.00 92 1012.9
20260904063957 66 97 0.0 0.0 0.00 0.00 0.00 92 1012.9
20260904063453 67 96 0.0 0.0 0.00 0.00 0.00 92 1012.9
20260904062948 67 96 0.0 0.0 0.00 0.00 0.00 92 1012.9
20260904062444 67 98 0.0 0.0 0.00 0.00 0.00 92 1012.5
20260904061940 67 100 0.0 0.0 0.00 0.00 0.00 92 1012.5
20260904061436 67 100 0.0 0.0 0.00 0.00 0.00 92 1012.9
20260904060932 67 100 0.0 0.0 0.00 0.00 0.00 92 1012.9
20260904060428 67 113 0.0 0.0 0.00 0.00 0.00 92 1012.5
20260904055923 67 136 0.0 0.0 0.00 0.00 0.00 92 1012.2
20260904055419 68 158 0.0 0.0 0.00 0.00 0.00 92 1012.5
20260904054914 68 140 0.0 0.0 0.00 0.00 0.00 92 1012.5
20260904054404 68 135 0.0 0.0 0.00 0.00 0.00 92 1012.5
20260904053859 68 163 0.0 0.0 0.00 0.00 0.00 92 1012.5
20260904053358 68 212 0.0 0.0 0.00 0.00 0.00 92 1012.5
20260904052854 68 214 0.0 0.0 0.00 0.00 0.00 91 1012.5
20260904052350 68 235 0.0 0.0 0.00 0.00 0.00 91 1012.5
20260904051846 68 177 0.0 0.0 0.00 0.00 0.00 91 1012.5
20260904051343 68 146 0.0 0.0 0.00 0.00 0.00 91 1012.9
20260904050843 68 186 0.0 0.0 0.00 0.00 0.00 91 1012.9
20260904050339 68 121 0.0 0.0 0.00 0.00 0.00 91 1012.9
20260904045839 68 193 0.0 0.0 0.00 0.00 0.00 91 1012.9
20260904045335 68 203 0.0 0.0 0.00 0.00 0.00 91 1012.5
20260904044834 68 200 0.0 0.0 0.00 0.00 0.00 91 1012.9
20260904044331 68 214 0.0 0.0 0.00 0.00 0.00 91 1012.9
20260904043827 68 229 0.0 0.0 0.00 0.00 0.00 91 1012.9
20260904043323 68 245 0.0 0.0 0.00 0.00 0.00 91 1012.9
20260904042818 68 246 0.0 0.0 0.00 0.00 0.00 91 1012.9
20260904042314 69 229 0.0 0.0 0.00 0.00 0.00 91 1012.5
20260904041814 69 243 0.0 0.0 0.00 0.00 0.00 90 1012.5
20260904041310 69 241 0.0 0.0 0.00 0.00 0.00 90 1012.5
20260904040805 69 240 0.0 0.0 0.00 0.00 0.00 90 1012.5
20260904040301 69 225 0.0 0.0 0.00 0.00 0.00 90 1012.2
20260904035757 69 244 0.0 0.0 0.00 0.00 0.00 89 1012.5
20260904035253 69 246 0.0 0.0 0.00 0.00 0.00 89 1012.5
20260904034752 69 223 0.0 0.0 0.00 0.00 0.00 88 1012.2
20260904034247 69 246 0.0 0.0 0.00 0.00 0.00 88 1012.2
20260904033743 69 246 0.0 0.0 0.00 0.00 0.00 88 1012.2
20260904033240 69 235 0.0 0.0 0.00 0.00 0.00 89 1012.2
20260904032736 69 247 0.0 0.0 0.00 0.00 0.00 89 1012.2
20260904032234 69 242 0.0 0.0 0.00 0.00 0.00 89 1012.2
20260904031723 69 246 3.5 5.2 0.00 0.00 0.00 89 1012.2
20260904031219 69 255 0.0 0.0 0.00 0.00 0.00 89 1012.2
20260904030714 69 244 0.0 0.0 0.00 0.00 0.00 89 1012.2
20260904030209 69 238 0.0 0.0 0.00 0.00 0.00 90 1012.2
20260904025707 69 233 0.0 0.0 0.00 0.00 0.00 90 1011.8
20260904025201 69 252 0.0 0.0 0.00 0.00 0.00 90 1011.8
20260904024656 69 254 0.0 0.0 0.00 0.00 0.00 90 1011.8
20260904024151 69 270 0.0 0.9 0.00 0.00 0.00 90 1012.2
20260904023648 69 255 3.5 5.2 0.00 0.00 0.00 90 1011.8
20260904023143 69 242 0.0 0.0 0.00 0.00 0.00 89 1012.2
20260904022643 69 211 0.0 0.0 0.00 0.00 0.00 89 1011.8
20260904022140 69 243 0.0 0.0 0.00 0.00 0.00 89 1011.8
20260904021636 69 224 0.0 0.0 0.00 0.00 0.00 89 1011.8
20260904021130 70 161 0.0 0.0 0.00 0.00 0.00 88 1011.8
20260904020627 70 207 0.0 0.0 0.00 0.00 0.00 88 1011.8
20260904020120 70 238 4.3 5.2 0.00 0.00 0.00 86 1011.8
20260904015615 71 231 0.0 0.0 0.00 0.00 0.00 85 1011.8
20260904015114 71 168 0.0 0.0 0.00 0.00 0.00 84 1012.2
20260904014614 71 235 0.0 0.0 0.00 0.00 0.00 82 1012.2
20260904014109 71 217 0.0 0.0 0.00 0.00 0.00 82 1012.2
20260904013606 71 221 0.0 0.0 0.00 0.00 0.00 82 1012.2
20260904013056 72 255 3.5 6.1 0.00 0.00 0.00 81 1011.8
20260904012556 71 243 5.2 7.8 0.00 0.00 0.00 82 1012.2
20260904012056 71 246 2.6 8.7 0.00 0.00 0.00 82 1012.2
20260904011549 72 242 5.2 7.8 0.00 0.00 0.00 80 1012.2
20260904011045 72 256 0.0 0.9 0.00 0.00 0.00 80 1011.8
20260904010541 72 247 5.2 6.1 0.00 0.00 0.00 80 1012.2
20260904010037 73 250 3.5 4.3 0.00 0.00 0.00 79 1012.2
20260904005537 73 238 4.3 5.2 0.00 0.00 0.00 79 1011.8
20260904005032 73 245 5.2 6.1 0.00 0.00 0.00 80 1012.2
20260904004528 73 245 9.6 9.6 0.00 0.00 0.00 78 1012.2
20260904004023 73 255 6.1 7.8 0.00 0.00 0.00 78 1012.2
20260904003519 73 275 6.1 7.0 0.00 0.00 0.00 78 1012.2
20260904003014 73 242 5.2 6.1 0.00 0.00 0.00 78 1012.2
20260904002510 73 265 7.8 9.6 0.00 0.00 0.00 79 1012.2
20260904002009 74 261 0.9 4.3 0.00 0.00 0.00 77 1012.2
20260904001505 74 192 5.2 6.1 0.00 0.00 0.00 78 1012.2
20260904001004 74 282 0.0 0.0 0.00 0.00 0.00 78 1012.2
20260904000504 74 225 6.1 7.8 0.00 0.00 0.00 79 1012.2
20260903235959 74 237 7.0 8.7 0.00 0.00 0.00 79 1012.2
20260903235455 74 212 4.3 7.8 0.00 0.00 0.00 79 1012.2
20260903234955 74 232 2.6 4.3 0.00 0.00 0.00 80 1012.2
20260903234451 74 255 6.1 8.7 0.00 0.00 0.00 79 1012.2
20260903233947 75 246 7.0 7.8 0.00 0.00 0.00 78 1012.5
20260903233442 75 232 3.5 8.7 0.00 0.00 0.00 77 1012.5
20260903232937 75 256 5.2 7.0 0.00 0.00 0.00 78 1012.2
20260903232432 76 260 5.2 7.0 0.00 0.00 0.00 77 1012.5
20260903231926 77 230 6.1 7.8 0.00 0.00 0.00 74 1012.5
20260903231421 76 270 4.3 6.1 0.00 0.00 0.00 75 1012.5
20260903230916 76 243 8.7 11.3 0.00 0.00 0.00 75 1012.5
20260903230411 76 250 7.0 7.8 0.00 0.00 0.00 76 1012.9
20260903225902 75 218 7.8 9.6 0.00 0.00 0.00 76 1012.9
20260903225358 75 215 7.8 11.3 0.00 0.00 0.00 76 1012.5
20260903224854 75 228 6.1 7.0 0.00 0.00 0.00 76 1012.5
20260903224350 76 248 11.3 13.0 0.00 0.00 0.00 76 1012.5
20260903223845 75 243 0.0 0.0 0.00 0.00 0.00 76 1012.9